Weather reports worldwide

Advertisment
Reus, Spain (8175): temperature & dewpoint: 22.03.2020 22:00:00 - 28.03.2020 22:00:00 (CET)Reus, Spain (8175): wind speed: 22.03.2020 22:00:00 - 28.03.2020 22:00:00 (CET)Reus, Spain (8175): wind direction: 22.03.2020 22:00:00 - 28.03.2020 22:00:00 (CET)Reus, Spain (8175): reduced air pressure: 22.03.2020 22:00:00 - 28.03.2020 22:00:00 (CET)Reus, Spain (8175): visibility: 22.03.2020 22:00:00 - 28.03.2020 22:00:00 (CET)
Date & Time tt [°C] td [°C] ff [km/h] ff [kn] dd ppp [hPa] vv [km]
28.03.2020 22:00:00 - - - - - - -
28.03.2020 21:00:00 11,3 7,4 8 4 WSW 1018,1 -
28.03.2020 20:00:00 11,6 7,2 9 5 SW 1017,6 -
28.03.2020 19:00:00 13,4 6,9 11 6 SW 1017,2 30
28.03.2020 18:00:00 15,5 6,0 11 6 SSW 1016,7 -
28.03.2020 17:00:00 17,0 4,3 13 7 S 1016,4 -
28.03.2020 16:00:00 17,4 4,4 13 7 S 1016,8 30
28.03.2020 15:00:00 17,7 4,3 13 7 S 1017,0 -
28.03.2020 14:00:00 18,3 4,6 16 9 SSE 1017,4 -
28.03.2020 13:00:00 16,9 3,0 9 5 N 1017,8 30
28.03.2020 12:00:00 16,6 2,7 9 5 ENE 1018,2 -
28.03.2020 11:00:00 16,2 4,4 5 3 W 1018,1 -
28.03.2020 10:00:00 13,4 5,2 4 2 N 1018,3 30
28.03.2020 09:00:00 12,0 5,2 4 2 N 1017,7 -
28.03.2020 08:00:00 9,9 5,7 9 5 NNE 1017,2 -
28.03.2020 07:00:00 8,8 5,7 9 5 NE 1016,8 30
28.03.2020 06:00:00 8,6 5,7 9 5 NNE 1016,4 -
28.03.2020 05:00:00 8,3 5,8 5 3 N 1016,4 -
28.03.2020 04:00:00 8,5 6,1 8 4 NNE 1016,4 -
28.03.2020 03:00:00 8,9 6,2 8 4 N 1016,7 -
28.03.2020 02:00:00 8,7 5,6 9 5 N 1017,0 -
28.03.2020 01:00:00 8,7 5,2 5 3 WNW 1016,8 -
28.03.2020 00:00:00 8,3 5,9 11 6 NW 1017,1 -
27.03.2020 23:00:00 9,1 5,8 8 4 N 1017,2 -
27.03.2020 22:00:00 9,7 4,5 9 5 N 1017,1 -
27.03.2020 21:00:00 10,0 4,6 9 5 ENE 1016,5 -
27.03.2020 20:00:00 10,8 4,9 4 2 SE 1015,6 -
27.03.2020 19:00:00 11,4 4,5 8 4 SSW 1014,7 30
27.03.2020 18:00:00 12,7 3,2 15 8 S 1014,0 -
27.03.2020 17:00:00 14,7 1,7 15 8 S 1013,3 -
27.03.2020 16:00:00 15,4 3,7 21 11 SSW 1013,2 30
27.03.2020 15:00:00 15,6 3,8 21 11 SSW 1013,5 -
27.03.2020 14:00:00 15,7 3,6 15 8 SW 1013,6 -
27.03.2020 13:00:00 15,1 1,8 4 2 SW 1013,7 30
27.03.2020 12:00:00 14,7 3,6 11 6 S 1014,3 -
27.03.2020 11:00:00 13,7 1,3 5 3 ESE 1014,5 -
27.03.2020 10:00:00 11,2 2,7 9 5 NE 1014,6 30
27.03.2020 09:00:00 8,8 4,0 5 3 ENE 1014,4 -
27.03.2020 08:00:00 4,6 1,8 9 5 NNE 1014,5 -
27.03.2020 07:00:00 1,5 -0,1 8 4 N 1014,3 30
27.03.2020 06:00:00 1,1 -0,5 9 5 NNE 1013,9 -
27.03.2020 05:00:00 1,7 0,2 9 5 N 1013,5 -
27.03.2020 04:00:00 1,5 0,2 8 4 NNE 1013,5 -
27.03.2020 03:00:00 1,6 0,3 11 6 N 1013,7 -
27.03.2020 02:00:00 2,5 1,2 8 4 NNE 1013,9 -
27.03.2020 01:00:00 3,5 2,2 13 7 NNW 1013,8 -
27.03.2020 00:00:00 3,7 2,4 8 4 NNE 1013,8 -
26.03.2020 23:00:00 4,5 2,4 8 4 NNE 1013,5 -
26.03.2020 22:00:00 5,9 3,2 11 6 N 1013,3 -
26.03.2020 21:00:00 6,8 3,9 11 6 NNE 1013,2 -
26.03.2020 20:00:00 7,0 3,8 15 8 N 1012,6 -
26.03.2020 19:00:00 7,3 4,5 8 4 NNW 1011,8 15
26.03.2020 18:00:00 8,3 4,3 13 7 NNE 1010,9 -
26.03.2020 17:00:00 8,4 4,7 11 6 N 1010,2 -
26.03.2020 16:00:00 8,1 5,2 11 6 NNE 1009,6 25
26.03.2020 15:00:00 6,5 4,3 0 0 N 1009,5 -
26.03.2020 14:00:00 4,8 3,0 8 4 SE 1009,6 -
26.03.2020 13:00:00 9,9 4,4 15 8 SW 1008,4 15
26.03.2020 12:00:00 12,0 3,9 16 9 SE 1008,1 30
26.03.2020 11:00:00 11,7 4,1 8 4 WSW 1008,1 27
26.03.2020 10:00:00 11,0 4,3 11 6 S 1008,0 30
26.03.2020 09:00:00 11,1 4,4 5 3 SE 1007,8 30
26.03.2020 08:00:00 7,8 4,7 0 0 N 1007,9 30
26.03.2020 07:00:00 6,4 4,1 0 0 N 1008,2 30
26.03.2020 06:00:00 7,1 4,1 8 4 WSW 1008,7 25
26.03.2020 05:00:00 7,2 4,0 4 2 WNW 1009,4 30
26.03.2020 04:00:00 7,4 3,1 9 5 NNE 1010,2 30
26.03.2020 03:00:00 7,4 3,4 9 5 N 1011,2 30
26.03.2020 02:00:00 7,1 3,5 9 5 N 1012,0 30
26.03.2020 01:00:00 7,2 2,9 4 2 WNW 1012,8 30
26.03.2020 00:00:00 7,6 3,8 8 4 WSW 1013,6 30
25.03.2020 23:00:00 7,8 3,2 5 3 W 1014,5 30
25.03.2020 22:00:00 8,1 3,0 9 5 W 1015,0 30
25.03.2020 21:00:00 8,3 2,7 9 5 W 1015,1 30
25.03.2020 20:00:00 8,2 3,2 8 4 WSW 1015,4 30
25.03.2020 19:00:00 8,7 1,9 8 4 SW 1015,7 30
25.03.2020 18:00:00 9,4 1,6 9 5 SSW 1015,8 30
25.03.2020 17:00:00 10,3 0,9 5 3 SSW 1016,1 30
25.03.2020 16:00:00 10,8 0,4 4 2 SW 1016,4 30
25.03.2020 15:00:00 9,2 1,4 8 4 WNW 1017,3 30
25.03.2020 14:00:00 9,4 2,0 8 4 NNW 1017,8 30
25.03.2020 13:00:00 9,3 1,6 11 6 N 1018,6 30
25.03.2020 12:00:00 8,5 1,8 16 9 NNE 1019,0 30
25.03.2020 11:00:00 7,8 0,9 18 10 NE 1019,1 30
25.03.2020 10:00:00 9,3 0,0 22 12 ENE 1018,7 30
25.03.2020 09:00:00 8,9 0,9 9 5 NE 1018,8 30
25.03.2020 08:00:00 7,4 1,0 11 6 N 1018,8 30
25.03.2020 07:00:00 6,8 2,1 13 7 NNW 1018,2 30
25.03.2020 06:00:00 7,1 2,1 13 7 NNE 1018,4 30
25.03.2020 05:00:00 6,8 3,6 15 8 N 1018,7 25
25.03.2020 04:00:00 8,1 3,1 13 7 NNE 1018,7 30
25.03.2020 03:00:00 8,3 2,7 13 7 N 1018,9 30
25.03.2020 02:00:00 8,7 2,9 11 6 NE 1019,5 30
25.03.2020 01:00:00 9,0 3,2 11 6 NE 1019,4 30
25.03.2020 00:00:00 9,4 3,1 16 9 NE 1019,7 30
24.03.2020 23:00:00 9,8 4,0 15 8 ENE 1019,9 28
24.03.2020 22:00:00 10,0 4,6 13 7 ENE 1019,8 23
24.03.2020 21:00:00 10,2 5,0 11 6 ENE 1019,8 30
24.03.2020 20:00:00 10,6 5,4 15 8 E 1019,5 22
24.03.2020 19:00:00 10,5 6,1 15 8 E 1019,1 25
24.03.2020 18:00:00 11,3 6,0 16 9 E 1018,8 29
24.03.2020 17:00:00 11,7 6,4 21 11 E 1018,3 26
24.03.2020 16:00:00 12,6 6,1 24 13 E 1018,8 30
24.03.2020 15:00:00 12,7 4,4 24 13 E 1019,3 30
24.03.2020 14:00:00 12,5 3,9 18 10 E 1019,8 30
24.03.2020 13:00:00 13,4 6,8 24 13 ESE 1020,1 25
24.03.2020 12:00:00 13,8 5,2 11 6 E 1020,4 27
24.03.2020 11:00:00 13,4 6,0 13 7 E 1020,5 30
24.03.2020 10:00:00 13,9 5,7 21 11 ENE 1020,8 25
24.03.2020 09:00:00 12,5 5,8 21 11 ENE 1020,7 30
24.03.2020 08:00:00 11,1 6,0 16 9 NNE 1020,6 22
24.03.2020 07:00:00 9,9 6,1 22 12 ENE 1020,7 25
24.03.2020 06:00:00 11,1 6,6 16 9 NE 1020,2 27
24.03.2020 05:00:00 11,1 6,5 15 8 NNE 1020,3 18
24.03.2020 04:00:00 11,2 7,0 16 9 NNE 1020,2 24
24.03.2020 03:00:00 11,6 7,2 16 9 NNE 1020,2 23
24.03.2020 02:00:00 11,7 8,0 24 13 ENE 1020,6 16
24.03.2020 01:00:00 12,1 8,6 22 12 ENE 1020,5 16
24.03.2020 00:00:00 12,3 8,9 18 10 NE 1020,6 15
23.03.2020 23:00:00 12,3 8,8 15 8 NE 1020,6 21
23.03.2020 22:00:00 11,7 8,5 11 6 NE 1020,3 21
23.03.2020 21:00:00 11,7 9,3 11 6 NE 1019,9 20
23.03.2020 20:00:00 11,8 9,4 9 5 ENE 1019,5 13
23.03.2020 19:00:00 12,9 9,5 16 9 E 1018,8 30
23.03.2020 18:00:00 14,1 9,7 21 11 E 1018,8 23
23.03.2020 17:00:00 14,9 9,3 22 12 ESE 1018,2 30
23.03.2020 16:00:00 15,7 10,1 22 12 E 1018,3 30
23.03.2020 15:00:00 16,6 10,3 26 14 E 1018,4 21
23.03.2020 14:00:00 15,8 9,9 29 16 E 1018,8 22
23.03.2020 13:00:00 17,5 10,5 28 15 E 1018,5 30
23.03.2020 12:00:00 16,5 10,1 22 12 E 1018,9 30
23.03.2020 11:00:00 16,0 10,1 21 11 E 1018,7 30
23.03.2020 10:00:00 14,6 9,9 22 12 ENE 1018,7 30
23.03.2020 09:00:00 13,3 9,7 22 12 NE 1018,2 30
23.03.2020 08:00:00 12,0 9,6 15 8 NE 1017,6 30
23.03.2020 07:00:00 11,7 8,9 13 7 NNE 1016,9 20
23.03.2020 06:00:00 11,3 9,0 11 6 NNE 1016,5 30
23.03.2020 05:00:00 11,4 9,1 11 6 NNE 1016,2 30
23.03.2020 04:00:00 11,9 9,4 13 7 NE 1016,2 30
23.03.2020 03:00:00 11,7 9,4 11 6 NNE 1016,2 30
23.03.2020 02:00:00 11,6 9,5 9 5 NNE 1016,3 30
23.03.2020 01:00:00 11,7 9,4 13 7 NNE 1016,3 30
23.03.2020 00:00:00 11,7 9,6 13 7 NNE 1016,6 30
22.03.2020 23:00:00 11,1 9,8 9 5 N 1016,6 19
22.03.2020 22:00:00 11,2 9,8 11 6 NNW 1016,3 7

tt = temperature
td = dewpoint
ff = wind speed
dd = wind direction
ppp = reduced air pressure
vv = visibility

Next stations